User: anonymous   Login
Location: Melbourne
(37.8170°S, 144.9670°E)
Time: 20:07:52
(UTC+11:00)
Language:

Explorer 11/Cluster Stage 4 - Orbit

View from above orbital plane
View from above orbital plane
View from above satellite
View from above satellite

Ground track
Ground track

The orbit data is extracted from the following two-line orbital elements,

1   107U 61013A   17086.01566721 +.00000823 +00000-0 +92646-4 0  9993
2   107 028.7880 353.6962 0549642 124.6193 240.7463 14.08257730799922
Epoch (UTC): 27 March 2017 00:22:33
Eccentricity: 0.0549642
inclination: 28.7880°
perigee height: 467 km
apogee height: 1263 km
right ascension of ascending node: 353.6962°
argument of perigee: 124.6193°
revolutions per day: 14.08257730
mean anomaly at epoch: 240.7463°
orbit number at epoch: 79992

The dashed part of the orbit path shows where the satellite is in the earth's shadow,  

DLR